When you browse on this site, cookies collect data to enhance your experience and personalize the content and advertising you see.
Visit our Privacy Policy to learn more. By continuing to use the site, you agree to this use of cookies and data.
  • în România
  • Lista ţărilor
  • Pe 7 zile
  • Temperatura apei
  • Hartă satelitară
  • Meteo pe hartă
  • Widget-uri
  • user-avatar
    Intrare

    Meteo pe oră la Lepeshkino

    Astăzi, 17 Februarie, Duminică

    Timp Temperatura Precipitaţii Vânt Presiune Umiditate
    00:00 -5°C° 0.1 mm 2 m/s 737 mmHg 97%
    01:00 -5°C° 0.1 mm 2 m/s 737 mmHg 97%
    02:00 -5°C° 0.1 mm 2 m/s 737 mmHg 97%
    03:00 -5°C° 0.1 mm 2 m/s 737 mmHg 97%
    04:00 -5°C° 0 mm 2 m/s 736 mmHg 98%
    05:00 -5°C° 0.1 mm 2 m/s 736 mmHg 97%
    06:00 -6°C° 0.1 mm 2 m/s 736 mmHg 97%
    07:00 -6°C° 0.1 mm 1 m/s 736 mmHg 96%
    08:00 -6°C° 0 mm 1 m/s 736 mmHg 96%
    09:00 -6°C° 0 mm 1 m/s 735 mmHg 95%
    10:00 -7°C° 0 mm 0 m/s 735 mmHg 92%
    11:00 -6°C° 0 mm 1 m/s 735 mmHg 92%
    12:00 -6°C° 0 mm 2 m/s 734 mmHg 92%
    13:00 -6°C° 0 mm 3 m/s 734 mmHg 91%
    14:00 -5°C° 0 mm 3 m/s 733 mmHg 91%
    15:00 -5°C° 0 mm 3 m/s 733 mmHg 90%
    16:00 -5°C° 0 mm 3 m/s 732 mmHg 91%
    17:00 -4°C° 0.1 mm 4 m/s 732 mmHg 91%
    18:00 -4°C° 0.1 mm 4 m/s 731 mmHg 91%
    19:00 -5°C° 0.1 mm 5 m/s 730 mmHg 91%
    20:00 -5°C° 0 mm 5 m/s 730 mmHg 91%
    21:00 -6°C° 0 mm 5 m/s 729 mmHg 91%
    22:00 -6°C° 0 mm 5 m/s 728 mmHg 91%
    23:00 -6°C° 0.1 mm 6 m/s 728 mmHg 91%

    Mâine, 18 Februarie, Luni

    Timp Temperatura Precipitaţii Vânt Presiune Umiditate
    00:00 -6°C° 0.1 mm 6 m/s 727 mmHg 91%
    01:00 -6°C° 0.1 mm 6 m/s 726 mmHg 91%
    02:00 -6°C° 0.2 mm 6 m/s 726 mmHg 91%
    03:00 -6°C° 0.2 mm 6 m/s 725 mmHg 92%
    04:00 -6°C° 0.2 mm 6 m/s 725 mmHg 92%
    05:00 -6°C° 0.3 mm 6 m/s 725 mmHg 92%
    06:00 -6°C° 0.3 mm 5 m/s 724 mmHg 93%
    07:00 -6°C° 0.3 mm 5 m/s 724 mmHg 93%
    08:00 -6°C° 0.2 mm 5 m/s 724 mmHg 93%
    09:00 -6°C° 0.2 mm 5 m/s 724 mmHg 92%
    10:00 -6°C° 0.2 mm 5 m/s 724 mmHg 92%
    11:00 -4°C° 0.2 mm 4 m/s 724 mmHg 91%
    12:00 -4°C° 0.2 mm 4 m/s 725 mmHg 91%
    13:00 -2°C° 0.2 mm 3 m/s 725 mmHg 90%
    14:00 -2°C° 0.2 mm 3 m/s 725 mmHg 91%
    15:00 -2°C° 0.2 mm 2 m/s 726 mmHg 91%
    16:00 -2°C° 0.2 mm 2 m/s 726 mmHg 92%
    17:00 -3°C° 0.2 mm 2 m/s 726 mmHg 93%
    18:00 -3°C° 0.2 mm 2 m/s 727 mmHg 94%
    19:00 -4°C° 0.2 mm 2 m/s 728 mmHg 95%
    20:00 -4°C° 0.2 mm 2 m/s 728 mmHg 95%
    21:00 -4°C° 0.2 mm 2 m/s 729 mmHg 95%
    22:00 -5°C° 0.2 mm 3 m/s 729 mmHg 95%
    23:00 -5°C° 0.2 mm 3 m/s 730 mmHg 95%

    Poimâine, 19 Februarie, Marţi

    Timp Temperatura Precipitaţii Vânt Presiune Umiditate
    00:00 -7°C° 0.2 mm 4 m/s 731 mmHg 95%
    01:00 -7°C° 0.2 mm 5 m/s 732 mmHg 94%
    02:00 -9°C° 0.1 mm 6 m/s 732 mmHg 92%
    03:00 -12°C° 0.1 mm 8 m/s 733 mmHg 89%
    04:00 -14°C° 0.1 mm 9 m/s 734 mmHg 87%
    05:00 -15°C° 0 mm 9 m/s 735 mmHg 86%
    06:00 -16°C° 0 mm 8 m/s 736 mmHg 86%
    07:00 -17°C° 0 mm 8 m/s 737 mmHg 86%
    08:00 -18°C° 0 mm 8 m/s 738 mmHg 86%
    09:00 -19°C° 0 mm 8 m/s 738 mmHg 86%
    10:00 -21°C° 0 mm 8 m/s 739 mmHg 85%
    11:00 -20°C° 0 mm 7 m/s 740 mmHg 86%
    12:00 -19°C° 0 mm 7 m/s 740 mmHg 86%
    13:00 -19°C° 0 mm 7 m/s 741 mmHg 87%
    14:00 -18°C° 0 mm 6 m/s 741 mmHg 87%
    15:00 -18°C° 0 mm 6 m/s 742 mmHg 87%
    16:00 -18°C° 0 mm 5 m/s 743 mmHg 88%
    17:00 -18°C° 0 mm 4 m/s 743 mmHg 89%
    18:00 -20°C° 0 mm 4 m/s 744 mmHg 91%
    19:00 -21°C° 0 mm 3 m/s 745 mmHg 93%
    20:00 -20°C° 0 mm 2 m/s 745 mmHg 93%
    21:00 -20°C° 0 mm 2 m/s 745 mmHg 93%
    22:00 -21°C° 0 mm 2 m/s 746 mmHg 93%
    23:00 -18°C° 0 mm 1 m/s 746 mmHg 92%

    20 Februarie, Miercuri

    Timp Temperatura Precipitaţii Vânt Presiune Umiditate
    00:00 -18°C° 0 mm 1 m/s 746 mmHg 91%
    01:00 -18°C° 0 mm 1 m/s 746 mmHg 91%
    02:00 -18°C° 0 mm 1 m/s 746 mmHg 91%
    03:00 -18°C° 0 mm 1 m/s 746 mmHg 90%
    04:00 -20°C° 0 mm 2 m/s 746 mmHg 90%
    05:00 -20°C° 0 mm 2 m/s 746 mmHg 91%
    06:00 -22°C° 0 mm 3 m/s 746 mmHg 91%
    07:00 -22°C° 0 mm 3 m/s 746 mmHg 92%
    08:00 -22°C° 0 mm 4 m/s 746 mmHg 92%
    09:00 -20°C° 0 mm 4 m/s 746 mmHg 93%
    10:00 -20°C° 0 mm 5 m/s 746 mmHg 93%
    11:00 -19°C° 0 mm 5 m/s 746 mmHg 93%
    12:00 -17°C° 0 mm 5 m/s 746 mmHg 93%
    13:00 -16°C° 0 mm 6 m/s 745 mmHg 93%
    14:00 -16°C° 0.1 mm 6 m/s 745 mmHg 93%
    15:00 -15°C° 0.1 mm 7 m/s 744 mmHg 93%
    16:00 -15°C° 0.1 mm 7 m/s 744 mmHg 92%
    17:00 -15°C° 0 mm 7 m/s 744 mmHg 92%
    18:00 -14°C° 0 mm 7 m/s 744 mmHg 91%
    19:00 -14°C° 0 mm 7 m/s 743 mmHg 91%
    20:00 -15°C° 0 mm 7 m/s 743 mmHg 91%
    21:00 -15°C° 0 mm 7 m/s 743 mmHg 91%
    22:00 -17°C° 0 mm 7 m/s 742 mmHg 92%
    23:00 -15°C° 0.1 mm 7 m/s 742 mmHg 92%

    21 Februarie, Joi

    Timp Temperatura Precipitaţii Vânt Presiune Umiditate
    00:00 -14°C° 0.1 mm 7 m/s 742 mmHg 92%
    01:00 -14°C° 0.1 mm 7 m/s 742 mmHg 92%
    02:00 -13°C° 0.1 mm 7 m/s 741 mmHg 92%
    03:00 -12°C° 0.1 mm 7 m/s 741 mmHg 91%
    04:00 -12°C° 0.1 mm 7 m/s 741 mmHg 91%
    05:00 -12°C° 0.1 mm 7 m/s 741 mmHg 91%
    06:00 -11°C° 0.1 mm 7 m/s 741 mmHg 91%
    07:00 -11°C° 0.1 mm 7 m/s 741 mmHg 92%
    08:00 -11°C° 0.2 mm 7 m/s 741 mmHg 92%
    09:00 -11°C° 0.2 mm 7 m/s 741 mmHg 92%
    10:00 -11°C° 0.2 mm 7 m/s 742 mmHg 92%
    11:00 -9°C° 0.2 mm 7 m/s 742 mmHg 92%
    12:00 -9°C° 0.2 mm 7 m/s 742 mmHg 92%
    13:00 -9°C° 0.2 mm 7 m/s 742 mmHg 92%
    14:00 -9°C° 0.3 mm 7 m/s 742 mmHg 92%
    15:00 -9°C° 0.3 mm 6 m/s 742 mmHg 92%
    16:00 -8°C° 0.3 mm 6 m/s 742 mmHg 92%
    17:00 -8°C° 0.3 mm 6 m/s 742 mmHg 92%
    18:00 -8°C° 0.3 mm 6 m/s 742 mmHg 92%
    19:00 -9°C° 0.3 mm 6 m/s 743 mmHg 92%
    20:00 -9°C° 0.3 mm 6 m/s 743 mmHg 93%
    21:00 -9°C° 0.3 mm 6 m/s 743 mmHg 93%
    22:00 -9°C° 0.3 mm 6 m/s 743 mmHg 93%
    23:00 -9°C° 0.4 mm 6 m/s 742 mmHg 93%

    22 Februarie, Vineri

    Timp Temperatura Precipitaţii Vânt Presiune Umiditate
    00:00 -9°C° 0.4 mm 6 m/s 742 mmHg 93%
    01:00 -9°C° 0.4 mm 7 m/s 742 mmHg 93%
    02:00 -8°C° 0.4 mm 7 m/s 742 mmHg 92%
    03:00 -8°C° 0.4 mm 7 m/s 742 mmHg 92%
    04:00 -7°C° 0.4 mm 7 m/s 742 mmHg 92%
    05:00 -7°C° 0.2 mm 7 m/s 741 mmHg 91%
    06:00 -7°C° 0.2 mm 7 m/s 741 mmHg 91%
    07:00 -6°C° 0.2 mm 7 m/s 741 mmHg 90%
    08:00 -6°C° 0.1 mm 7 m/s 741 mmHg 90%
    09:00 -4°C° 0.1 mm 7 m/s 741 mmHg 90%
    10:00 -3°C° 0.1 mm 7 m/s 741 mmHg 90%
    11:00 -3°C° 0.2 mm 7 m/s 741 mmHg 90%
    12:00 -3°C° 0.2 mm 6 m/s 741 mmHg 91%
    13:00 -3°C° 0.2 mm 6 m/s 741 mmHg 92%
    14:00 -3°C° 0.4 mm 6 m/s 741 mmHg 92%
    15:00 -3°C° 0.4 mm 6 m/s 741 mmHg 92%
    16:00 -4°C° 0.4 mm 6 m/s 741 mmHg 91%
    17:00 -4°C° 0.1 mm 6 m/s 741 mmHg 91%
    18:00 -5°C° 0.1 mm 5 m/s 741 mmHg 91%
    19:00 -5°C° 0.1 mm 5 m/s 741 mmHg 90%
    20:00 -4°C° 0 mm 4 m/s 741 mmHg 92%
    21:00 -5°C° 0 mm 3 m/s 741 mmHg 93%
    22:00 -6°C° 0 mm 3 m/s 741 mmHg 95%
    23:00 -4°C° 0.3 mm 2 m/s 741 mmHg 95%
    Arată mai mult